If you wish to contribute or participate in the discussions about articles you are invited to join SKYbrary as a registered user

 Actions

Annecy-Haute-Savoie-Mont Blanc Airport

From SKYbrary Wiki

LFLP
Airport
ICAO: LFLP – IATA: NCY
Summary
Name Annecy-Haute-Savoie-Mont Blanc Airport
Region Europe
Territory France FR.gif
Location , Rhone-Alpes
Serving Annecy
Elevation 463.601 m
1,521 ft
1,521 ft463.601 m
Type medium airport
Coordinates 45° 55' 45.24" N, 6° 5' 55.55" E
Runways
Designator Length Width Surface ROPS
4/22 1630 m5,347.769 ft
30 m98.425 ft
ASP yes/yes


METAR
Observation LFLP 272100Z AUTO 00000KT 9999 FEW058 SCT068 OVC078 09/06 Q1016
Station ANNECY/MEYTHET
Date/Time 27 October 2020 21:00:00
Wind direction
Wind speed 00 kts
Lowest cloud amount few clouds
Temperature 9°C
Dew point 6°C
Humidity 81%
QNH 1016 hPa
Weather condition n/a